When you browse on this site, cookies collect data to enhance your experience and personalize the content and advertising you see.
Visit our Privacy Policy to learn more. By continuing to use the site, you agree to this use of cookies and data.
  • In Latvia
  • List of Countries
  • For 7 days
  • Water Temperature
  • Satellite Maps
  • Weather Map
  • Weather Widgets
  • user-avatar
    Login

    Hourly Weather Beruni

    Today, 24 January, Thursday

    Time Temperature Precipitation Wind Pressure Humidity
    00:00 +3°C° 0 mm 1 mps 759 mmHg 64%
    01:00 +2°C° 0 mm 1 mps 760 mmHg 66%
    02:00 +2°C° 0 mm 1 mps 760 mmHg 67%
    03:00 +2°C° 0 mm 1 mps 760 mmHg 68%
    04:00 +2°C° 0 mm 1 mps 760 mmHg 69%
    05:00 +2°C° 0 mm 1 mps 760 mmHg 69%
    06:00 +1°C° 0 mm 1 mps 761 mmHg 70%
    07:00 +1°C° 0 mm 1 mps 761 mmHg 70%
    08:00 +3°C° 0 mm 1 mps 761 mmHg 63%
    09:00 +5°C° 0 mm 1 mps 762 mmHg 56%
    10:00 +6°C° 0 mm 1 mps 762 mmHg 49%
    11:00 +7°C° 0 mm 1 mps 762 mmHg 47%
    12:00 +7°C° 0 mm 2 mps 762 mmHg 44%
    13:00 +8°C° 0 mm 2 mps 762 mmHg 42%
    14:00 +8°C° 0 mm 2 mps 762 mmHg 42%
    15:00 +8°C° 0 mm 2 mps 762 mmHg 42%
    16:00 +8°C° 0 mm 3 mps 762 mmHg 42%
    17:00 +7°C° 0 mm 3 mps 762 mmHg 45%
    18:00 +5°C° 0 mm 3 mps 762 mmHg 49%
    19:00 +4°C° 0 mm 3 mps 762 mmHg 52%
    20:00 +4°C° 0 mm 3 mps 762 mmHg 53%
    21:00 +3°C° 0 mm 3 mps 762 mmHg 54%
    22:00 +3°C° 0 mm 4 mps 762 mmHg 55%
    23:00 +3°C° 0 mm 4 mps 761 mmHg 56%

    Tomorrow, 25 January, Friday

    Time Temperature Precipitation Wind Pressure Humidity
    00:00 +1°C° 0 mm 4 mps 761 mmHg 56%
    01:00 +1°C° 0 mm 4 mps 761 mmHg 56%
    02:00 +2°C° 0 mm 3 mps 760 mmHg 56%
    03:00 +2°C° 0 mm 3 mps 760 mmHg 56%
    04:00 +2°C° 0 mm 3 mps 760 mmHg 56%
    05:00 0°C° 0 mm 4 mps 760 mmHg 57%
    06:00 0°C° 0 mm 4 mps 759 mmHg 57%
    07:00 0°C° 0 mm 4 mps 759 mmHg 58%
    08:00 +1°C° 0 mm 4 mps 759 mmHg 53%
    09:00 +3°C° 0 mm 5 mps 759 mmHg 49%
    10:00 +4°C° 0 mm 6 mps 759 mmHg 44%
    11:00 +7°C° 0 mm 6 mps 758 mmHg 39%
    12:00 +9°C° 0 mm 7 mps 758 mmHg 35%
    13:00 +10°C° 0 mm 7 mps 757 mmHg 30%
    14:00 +10°C° 0 mm 6 mps 757 mmHg 30%
    15:00 +10°C° 0 mm 6 mps 757 mmHg 30%
    16:00 +10°C° 0 mm 5 mps 756 mmHg 29%
    17:00 +9°C° 0 mm 5 mps 756 mmHg 32%
    18:00 +8°C° 0 mm 5 mps 756 mmHg 34%
    19:00 +7°C° 0 mm 5 mps 756 mmHg 37%
    20:00 +6°C° 0 mm 5 mps 756 mmHg 38%
    21:00 +6°C° 0 mm 5 mps 756 mmHg 39%
    22:00 +5°C° 0 mm 5 mps 756 mmHg 40%
    23:00 +5°C° 0 mm 5 mps 755 mmHg 41%

    Day after tomorrow, 26 January, Saturday

    Time Temperature Precipitation Wind Pressure Humidity
    00:00 +3°C° 0 mm 5 mps 755 mmHg 42%
    01:00 +3°C° 0 mm 5 mps 755 mmHg 43%
    02:00 +4°C° 0 mm 4 mps 755 mmHg 43%
    03:00 +3°C° 0 mm 4 mps 755 mmHg 44%
    04:00 +3°C° 0 mm 4 mps 755 mmHg 44%
    05:00 +3°C° 0 mm 4 mps 755 mmHg 45%
    06:00 +1°C° 0 mm 4 mps 755 mmHg 45%
    07:00 +1°C° 0 mm 4 mps 755 mmHg 46%
    08:00 +4°C° 0 mm 4 mps 755 mmHg 41%
    09:00 +5°C° 0 mm 5 mps 755 mmHg 37%
    10:00 +5°C° 0 mm 6 mps 756 mmHg 33%
    11:00 +7°C° 0 mm 5 mps 755 mmHg 30%
    12:00 +8°C° 0 mm 5 mps 755 mmHg 28%
    13:00 +9°C° 0 mm 5 mps 755 mmHg 25%
    14:00 +10°C° 0 mm 4 mps 755 mmHg 25%
    15:00 +10°C° 0 mm 3 mps 755 mmHg 26%
    16:00 +10°C° 0 mm 2 mps 755 mmHg 26%
    17:00 +9°C° 0 mm 2 mps 755 mmHg 29%
    18:00 +9°C° 0 mm 2 mps 755 mmHg 31%
    19:00 +9°C° 0 mm 1 mps 755 mmHg 34%
    20:00 +8°C° 0 mm 1 mps 755 mmHg 37%
    21:00 +7°C° 0 mm 1 mps 755 mmHg 39%
    22:00 +6°C° 0 mm 1 mps 755 mmHg 41%
    23:00 +6°C° 0 mm 1 mps 755 mmHg 42%

    27 January, Sunday

    Time Temperature Precipitation Wind Pressure Humidity
    00:00 +6°C° 0 mm 1 mps 755 mmHg 43%
    01:00 +6°C° 0 mm 1 mps 755 mmHg 44%
    02:00 +6°C° 0 mm 1 mps 755 mmHg 45%
    03:00 +5°C° 0 mm 2 mps 755 mmHg 46%
    04:00 +4°C° 0 mm 2 mps 755 mmHg 48%
    05:00 +4°C° 0 mm 2 mps 755 mmHg 49%
    06:00 +4°C° 0 mm 2 mps 755 mmHg 50%
    07:00 +4°C° 0 mm 2 mps 756 mmHg 52%
    08:00 +5°C° 0 mm 3 mps 756 mmHg 51%
    09:00 +7°C° 0 mm 3 mps 756 mmHg 49%
    10:00 +8°C° 0 mm 3 mps 756 mmHg 48%
    11:00 +10°C° 0 mm 3 mps 756 mmHg 45%
    12:00 +11°C° 0 mm 4 mps 755 mmHg 41%
    13:00 +12°C° 0 mm 4 mps 755 mmHg 38%
    14:00 +13°C° 0 mm 4 mps 755 mmHg 36%
    15:00 +13°C° 0 mm 4 mps 754 mmHg 34%
    16:00 +13°C° 0 mm 4 mps 754 mmHg 32%
    17:00 +12°C° 0 mm 4 mps 754 mmHg 34%
    18:00 +11°C° 0 mm 4 mps 754 mmHg 36%
    19:00 +8°C° 0 mm 5 mps 753 mmHg 38%
    20:00 +8°C° 0 mm 5 mps 753 mmHg 40%
    21:00 +8°C° 0 mm 4 mps 753 mmHg 43%
    22:00 +7°C° 0 mm 4 mps 753 mmHg 45%
    23:00 +7°C° 0 mm 4 mps 752 mmHg 46%

    28 January, Monday

    Time Temperature Precipitation Wind Pressure Humidity
    00:00 +7°C° 0 mm 4 mps 752 mmHg 48%
    01:00 +6°C° 0 mm 4 mps 752 mmHg 50%
    02:00 +6°C° 0 mm 4 mps 752 mmHg 51%
    03:00 +6°C° 0 mm 4 mps 752 mmHg 51%
    04:00 +6°C° 0 mm 4 mps 751 mmHg 51%
    05:00 +6°C° 0 mm 4 mps 751 mmHg 50%
    06:00 +6°C° 0 mm 4 mps 751 mmHg 50%
    07:00 +7°C° 0 mm 3 mps 751 mmHg 49%
    08:00 +7°C° 0 mm 4 mps 751 mmHg 43%
    09:00 +10°C° 0 mm 4 mps 751 mmHg 38%
    10:00 +12°C° 0 mm 4 mps 751 mmHg 33%
    11:00 +13°C° 0 mm 4 mps 751 mmHg 30%
    12:00 +15°C° 0 mm 4 mps 751 mmHg 27%
    13:00 +17°C° 0 mm 4 mps 750 mmHg 24%
    14:00 +17°C° 0 mm 4 mps 750 mmHg 24%
    15:00 +17°C° 0 mm 4 mps 750 mmHg 25%
    16:00 +17°C° 0 mm 4 mps 749 mmHg 26%
    17:00 +15°C° 0 mm 4 mps 749 mmHg 30%
    18:00 +13°C° 0 mm 4 mps 749 mmHg 34%
    19:00 +12°C° 0 mm 4 mps 749 mmHg 38%
    20:00 +12°C° 0 mm 3 mps 749 mmHg 38%
    21:00 +11°C° 0 mm 3 mps 748 mmHg 39%
    22:00 +12°C° 0 mm 2 mps 748 mmHg 40%
    23:00 +10°C° 0 mm 2 mps 748 mmHg 41%

    29 January, Tuesday

    Time Temperature Precipitation Wind Pressure Humidity
    00:00 +11°C° 0 mm 1 mps 748 mmHg 42%
    01:00 +11°C° 0 mm 1 mps 747 mmHg 44%
    02:00 +11°C° 0 mm 1 mps 747 mmHg 42%
    03:00 +11°C° 0 mm 1 mps 747 mmHg 41%
    04:00 +10°C° 0 mm 2 mps 747 mmHg 40%
    05:00 +10°C° 0 mm 2 mps 747 mmHg 41%
    06:00 +10°C° 0 mm 2 mps 747 mmHg 41%
    07:00 +10°C° 0 mm 2 mps 746 mmHg 42%
    08:00 +10°C° 0 mm 2 mps 747 mmHg 41%
    09:00 +11°C° 0 mm 3 mps 747 mmHg 40%
    10:00 +12°C° 0 mm 3 mps 747 mmHg 39%
    11:00 +12°C° 0 mm 4 mps 746 mmHg 37%
    12:00 +13°C° 0 mm 5 mps 745 mmHg 36%
    13:00 +13°C° 0 mm 5 mps 744 mmHg 34%
    14:00 +13°C° 0 mm 5 mps 744 mmHg 34%
    15:00 +13°C° 0 mm 5 mps 744 mmHg 34%
    16:00 +13°C° 0 mm 5 mps 744 mmHg 34%
    17:00 +12°C° 0.1 mm 5 mps 744 mmHg 37%
    18:00 +12°C° 0.1 mm 5 mps 744 mmHg 40%
    19:00 +10°C° 0.1 mm 5 mps 744 mmHg 44%
    20:00 +10°C° 0 mm 5 mps 743 mmHg 48%
    21:00 +9°C° 0 mm 6 mps 743 mmHg 52%
    22:00 +9°C° 0 mm 6 mps 743 mmHg 56%
    23:00 +9°C° 0 mm 6 mps 743 mmHg 59%
    Show more